Ashtabula, OH

7:16 PM EDT on April 25, 2018 (GMT -0400)
Ashtabula County

Weather History for KHZY - July, 2013

Change the Weather History Date:

Thursday, July 4, 2013

  Actual Average (KGKJ) Record (KGKJ)
Temperature  
Mean Temperature 74 °F -  
Max Temperature 80 °F 79 °F 95 °F (1966)
Min Temperature 69 °F 55 °F 40 °F (1963)
Cooling Degree Days 10    
Growing Degree Days 24 (Base 50)    
Moisture  
Dew Point 67 °F    
Average Humidity 80    
Maximum Humidity 90    
Minimum Humidity 64    
Precipitation  
Precipitation 0.35 in - - ()
Sea Level Pressure  
Sea Level Pressure 30.16 in    
Wind  
Wind Speed 6 mph (South)    
Max Wind Speed 13 mph    
Max Gust Speed 17 mph    
Visibility 8 miles    
Events Rain    
Averages and records for this station are not official NWS values.
T = Trace of Precipitation, MM = Missing Value Source: NWS Daily Summary

Daily Weather History Graph

Daily Weather History Graph

Search for Another Location

Airport or City:

Astronomy

Jul. 04, 2013 Rise Set
Actual Time 5:53 AM EDT 9:00 PM EDT
Civil Twilight 5:19 AM EDT 9:34 PM EDT
Nautical Twilight 4:36 AM EDT 10:17 PM EDT
Astronomical Twilight 3:44 AM EDT 11:09 PM EDT
Moon 3:10 AM EDT (7/4) 6:02 PM EDT (7/4)
Length of Visible Light 16h 15m
Length of Day
15h 07m
Waning Crescent, 11% of the Moon is Illuminated
Jul 4
Waning Crescent
Jul 8
New
Jul 15
First Quarter
Jul 22
Full
Jul 29
Last Quarter

Hourly Weather History & Observations

Time (EDT) Temp. Heat Index Dew Point Humidity Pressure Visibility Wind Dir Wind Speed Gust Speed Precip Events Conditions
12:53 AM 70.0 °F - 66.0 °F 87% 30.14 in 8.0 mi Calm Calm - N/A   Partly Cloudy
1:53 AM 70.0 °F - 66.0 °F 87% 30.13 in 8.0 mi SSE 8.1 mph - N/A   Clear
2:53 AM 69.1 °F - 64.9 °F 87% 30.12 in 10.0 mi South 4.6 mph - N/A   Mostly Cloudy
3:53 AM 69.1 °F - 64.9 °F 87% 30.13 in 10.0 mi South 6.9 mph - N/A   Overcast
4:53 AM 69.1 °F - 64.9 °F 87% 30.14 in 4.0 mi SSW 6.9 mph - 0.04 in Rain Rain
5:23 AM 69.8 °F - 66.2 °F 88% 30.17 in 2.0 mi South 5.8 mph - 0.14 in Rain Rain
5:34 AM 69.8 °F - 66.2 °F 88% 30.17 in 4.0 mi South 6.9 mph - 0.17 in Rain Light Rain
5:53 AM 69.1 °F - 66.0 °F 90% 30.16 in 3.0 mi South 5.8 mph - 0.22 in Rain Heavy Rain
5:56 AM 69.8 °F - 66.2 °F 88% 30.18 in 2.5 mi South 3.5 mph - 0.01 in Rain Rain
6:08 AM 69.8 °F - 66.2 °F 88% 30.18 in 1.8 mi South 4.6 mph - 0.08 in Rain Light Rain
6:11 AM 69.8 °F - 66.2 °F 88% 30.18 in 3.0 mi South 3.5 mph - 0.08 in Rain Light Rain
6:42 AM 69.8 °F - 66.2 °F 88% 30.18 in 7.0 mi SSE 3.5 mph - 0.08 in   Mostly Cloudy
6:53 AM 70.0 °F - 66.0 °F 87% 30.17 in 8.0 mi South 3.5 mph - 0.08 in   Overcast
7:53 AM 70.0 °F - 66.0 °F 87% 30.18 in 6.0 mi SE 5.8 mph - N/A   Overcast
8:53 AM 71.1 °F - 66.9 °F 87% 30.19 in 9.0 mi South 8.1 mph - N/A   Overcast
9:32 AM 71.6 °F - 68.0 °F 88% 30.21 in 10.0 mi South 6.9 mph - N/A   Mostly Cloudy
9:53 AM 73.9 °F - 68.0 °F 82% 30.19 in 10.0 mi SSE 8.1 mph - N/A   Scattered Clouds
10:05 AM 73.4 °F - 66.2 °F 78% 30.21 in 10.0 mi South 8.1 mph - N/A   Mostly Cloudy
10:53 AM 75.0 °F - 68.0 °F 79% 30.18 in 10.0 mi South 6.9 mph - N/A   Mostly Cloudy
11:09 AM 75.2 °F - 68.0 °F 78% 30.20 in 10.0 mi South 9.2 mph - N/A   Mostly Cloudy
11:40 AM 75.2 °F - 69.8 °F 83% 30.19 in 10.0 mi South 8.1 mph - N/A   Mostly Cloudy
11:53 AM 77.0 °F - 69.1 °F 76% 30.18 in 10.0 mi SSW 10.4 mph - N/A   Mostly Cloudy
12:14 PM 77.0 °F - 66.2 °F 69% 30.19 in 10.0 mi SW 9.2 mph - N/A   Mostly Cloudy
12:53 PM 78.1 °F - 66.9 °F 68% 30.17 in 10.0 mi WSW 10.4 mph - N/A   Mostly Cloudy
1:53 PM 80.1 °F 82.3 °F 66.9 °F 64% 30.17 in 10.0 mi SW 9.2 mph - N/A   Partly Cloudy
2:53 PM 80.1 °F 82.7 °F 68.0 °F 67% 30.15 in 10.0 mi SSW 8.1 mph - 0.00 in   Partly Cloudy
3:53 PM 79.0 °F - 66.9 °F 66% 30.15 in 10.0 mi SSW 10.4 mph - N/A   Mostly Cloudy
4:53 PM 75.9 °F - 66.9 °F 74% 30.15 in 10.0 mi South 12.7 mph 17.3 mph 0.00 in Rain Light Rain
5:53 PM 79.0 °F - 66.9 °F 66% 30.14 in 10.0 mi SW 9.2 mph - 0.01 in   Clear
6:53 PM 77.0 °F - 64.9 °F 66% 30.14 in 10.0 mi SW 4.6 mph - N/A   Mostly Cloudy
7:53 PM 75.0 °F - 66.0 °F 73% 30.14 in 10.0 mi South 5.8 mph - N/A   Mostly Cloudy
8:53 PM 73.9 °F - 66.0 °F 76% 30.14 in 10.0 mi South 4.6 mph - N/A   Mostly Cloudy
9:53 PM 73.0 °F - 66.0 °F 79% 30.14 in 10.0 mi SSW 3.5 mph - N/A   Overcast
10:53 PM 72.0 °F - 66.0 °F 81% 30.14 in 10.0 mi Calm Calm - N/A   Mostly Cloudy
11:53 PM 70.0 °F - 66.0 °F 87% 30.15 in 9.0 mi Calm Calm - N/A   Scattered Clouds